Showing default

CARTOSAT 2E, 42767

Orbit data source: Space-Track

CARTOSAT 2E, 42767 is a payload satellite owned by ISRO (IN) in SSO that was launched on Fri, 23 Jun 2017 UTC via a PSLV-XL launch vehicle from the Sirharikota (SRI). Payload-class satellites include a variety of spacecraft equipped with specific instruments for various scientific and technological missions. These include communications satellites like Starlink; space stations such as the ISS; scientific satellites like the Hubble; Earth observation satellites from companies like Planet Labs, Umbra, and HawkEye 360; GPS; miniature CubeSats for education and research; and military/defense satellites.

Loading next visibility...
Identifier
42767, 2017-036C
Orbit
SSO
Country
Flag of ININ / IND
Related business
Manufacturer
ISRO
Mission
Operational Defense Imaging
Bus & Motor
IRS-2, AOCS
Mass
712 kg wet, 639 kg dry
Launch date (UTC)
2017-06-23 (9 years ago)
Launch vehicle
PSLV-XL
Launch site
Sirharikota (SRI)
Object type
Payload
Rocket body
Debris
Shape & HBR
Hex Cyl + 2 Pan, 4.0 m
Radar Cross Section
9.780 m², Large (>1 m²)

Expand to show TLE details & history
Last TLE update: 6 hours ago

TLE from 6 hours ago
0 CARTOSAT 2E
1 42767U 17036C   26251.49371466  .00004915  00000-0  23642-3 0  9998
2 42767  97.4208 309.8840 0004128  39.3259 320.8275 15.19240775510796
Epoch: 2026-09-08T11:50Z
TLE epoch observation values (Epoch: 2026-09-08T11:50:56.946Z)
Latitude
-0.00001°
Longitude
144.5874°
Altitude
509.019 km
Speed
7.611 km/s
True Right ascension
20h 39m 32s
True Declination
0° 00' 00"
Sunlit
Object was in full shadow at epoch
Visualization orbit readout
Latitude
Unknown
Longitude
Unknown
Altitude
Unknown
Speed
Unknown
Apparent Right ascension
Unknown
Apparent Declination
Unknown
Sunlit
N/A
Visualization observer readout
Local Sidereal Time
10:17:31
Azimuth
Unknown
Elevation
Unknown
Doppler factor
Unknown
Orbital elements
Apogee altitude
507.943 km
Perigee altitude
502.26 km
Semi-major axis
6,883.238 km
Eccentricity
0.00041
Inclination
97.4208°
RAAN
309.884°
Arg. of periapsis
39.3259°
True anomaly
320.79761°
Mean anomaly
320.8275°
Eccentric anomaly
320.81256°
Mean motion
3.80062 °/min
Orbital period
94.72 mins
BSTAR
0.00023642
Loading maneuver chart data...
Computing Atmospheric mass density...

Documentation

Showing up to 5 results
|